TimeEDT,TemperatureF,Dew PointF,Humidity,Sea Level PressureIn,VisibilityMPH,Wind Direction,Wind SpeedMPH,Gust SpeedMPH,PrecipitationIn,Events,Conditions,WindDirDegrees,DateUTC
12:53 AM,81.0,73.9,79,29.81,10.0,SSW,4.6,-,N/A,,Mostly Cloudy,210,2013-09-22 04:53:00
1:53 AM,82.0,73.9,76,29.80,10.0,SSW,6.9,-,N/A,,Mostly Cloudy,200,2013-09-22 05:53:00
2:53 AM,82.0,73.9,76,29.79,10.0,South,4.6,-,N/A,,Overcast,190,2013-09-22 06:53:00
3:53 AM,82.0,73.9,76,29.78,10.0,South,4.6,-,N/A,,Overcast,190,2013-09-22 07:53:00
4:53 AM,82.0,73.9,76,29.77,10.0,South,9.2,-,N/A,,Overcast,180,2013-09-22 08:53:00
5:53 AM,79.0,73.9,84,29.78,10.0,SSE,5.8,-,N/A,,Mostly Cloudy,150,2013-09-22 09:53:00
6:53 AM,77.0,73.9,90,29.78,5.0,SSE,4.6,-,0.01,Rain,Light Rain,150,2013-09-22 10:53:00
7:50 AM,77.0,73.4,89,29.79,10.0,NE,6.9,-,0.01,,Overcast,40,2013-09-22 11:50:00
7:53 AM,77.0,73.9,90,29.80,10.0,Variable,4.6,-,0.01,,Overcast,0,2013-09-22 11:53:00
8:26 AM,77.0,73.4,89,29.81,3.0,ENE,4.6,-,0.06,Rain,Rain,60,2013-09-22 12:26:00
8:53 AM,77.0,73.9,90,29.81,10.0,ESE,3.5,-,0.08,,Mostly Cloudy,120,2013-09-22 12:53:00
9:53 AM,79.0,75.0,88,29.82,7.0,SE,4.6,-,0.01,Rain,Light Rain,140,2013-09-22 13:53:00
10:53 AM,82.9,75.9,79,29.83,10.0,South,6.9,-,0.00,,Mostly Cloudy,190,2013-09-22 14:53:00
11:53 AM,84.0,75.0,74,29.82,10.0,South,13.8,18.4,N/A,,Mostly Cloudy,180,2013-09-22 15:53:00
12:53 PM,86.0,75.9,72,29.83,10.0,South,16.1,23.0,0.00,,Mostly Cloudy,190,2013-09-22 16:53:00
1:53 PM,88.0,75.0,65,29.81,10.0,SW,12.7,-,0.00,,Mostly Cloudy,220,2013-09-22 17:53:00
2:53 PM,86.0,73.9,67,29.81,10.0,SW,16.1,-,N/A,,Overcast,230,2013-09-22 18:53:00
3:53 PM,86.0,73.9,67,29.80,10.0,WSW,10.4,-,N/A,,Mostly Cloudy,250,2013-09-22 19:53:00
4:53 PM,84.0,75.0,74,29.79,10.0,SW,11.5,-,N/A,,Mostly Cloudy,230,2013-09-22 20:53:00
5:53 PM,82.9,75.0,77,29.80,10.0,WSW,6.9,-,N/A,,Mostly Cloudy,240,2013-09-22 21:53:00
6:53 PM,82.9,72.0,69,29.81,10.0,WSW,3.5,-,N/A,,Mostly Cloudy,250,2013-09-22 22:53:00
7:53 PM,82.9,73.0,72,29.82,10.0,SW,4.6,-,N/A,,Mostly Cloudy,230,2013-09-22 23:53:00
8:53 PM,81.0,75.0,82,29.84,10.0,SW,3.5,-,N/A,,Mostly Cloudy,220,2013-09-23 00:53:00
9:53 PM,81.0,75.0,82,29.85,10.0,Calm,Calm,-,N/A,,Mostly Cloudy,0,2013-09-23 01:53:00
10:53 PM,82.0,75.9,82,29.86,10.0,Calm,Calm,-,N/A,,Mostly Cloudy,0,2013-09-23 02:53:00
11:53 PM,81.0,75.0,82,29.87,10.0,Calm,Calm,-,N/A,,Overcast,0,2013-09-23 03:53:00